Time,TemperatureF,DewpointF,PressureIn,WindDirection,WindDirectionDegrees,WindSpeedMPH,WindSpeedGustMPH,Humidity,HourlyPrecipIn,Conditions,Clouds,dailyrainin,SoftwareType,DateUTC
2013-07-13 00:04:00,65.3,64.0,29.99,NNE,29,5.0,5.0,96,0.00,,,0.00,weatherlink.com 1.10,2013-07-13 04:04:00,
2013-07-13 00:19:00,64.4,62.0,29.98,NNW,331,1.0,9.0,93,0.00,,,0.00,weatherlink.com 1.10,2013-07-13 04:19:00,
2013-07-13 00:34:00,63.5,62.0,29.99,West,260,0.0,4.0,95,0.00,,,0.00,weatherlink.com 1.10,2013-07-13 04:34:00,
2013-07-13 00:49:00,63.9,63.0,29.99,WNW,285,0.0,3.0,97,0.00,,,0.00,weatherlink.com 1.10,2013-07-13 04:49:00,
2013-07-13 01:04:00,64.4,64.0,29.98,ENE,66,0.0,3.0,97,0.00,,,0.00,weatherlink.com 1.10,2013-07-13 05:04:00,
2013-07-13 01:19:00,64.7,64.0,29.99,ENE,70,1.0,3.0,98,0.00,,,0.00,weatherlink.com 1.10,2013-07-13 05:19:00,
2013-07-13 01:34:00,64.9,64.0,30.01,WSW,258,2.0,3.0,98,0.00,,,0.00,weatherlink.com 1.10,2013-07-13 05:34:00,
2013-07-13 01:49:00,64.8,64.0,30.00,SSW,195,0.0,2.0,98,0.00,,,0.00,weatherlink.com 1.10,2013-07-13 05:49:00,
2013-07-13 02:04:00,64.8,64.0,30.00,SSW,204,2.0,4.0,98,0.00,,,0.00,weatherlink.com 1.10,2013-07-13 06:04:00,
2013-07-13 02:19:00,64.8,64.0,30.00,NW,304,0.0,3.0,98,0.00,,,0.00,weatherlink.com 1.10,2013-07-13 06:19:00,
2013-07-13 02:34:00,64.8,64.0,30.02,WSW,254,4.0,7.0,98,0.00,,,0.00,weatherlink.com 1.10,2013-07-13 06:34:00,
2013-07-13 02:49:00,64.8,65.0,30.00,WNW,292,1.0,3.0,99,0.00,,,0.00,weatherlink.com 1.10,2013-07-13 06:49:00,
2013-07-13 03:04:00,64.7,64.0,30.00,ENE,75,1.0,3.0,99,0.00,,,0.00,weatherlink.com 1.10,2013-07-13 07:04:00,
2013-07-13 03:19:00,64.7,64.0,30.00,NE,55,1.0,2.0,98,0.00,,,0.00,weatherlink.com 1.10,2013-07-13 07:19:00,
2013-07-13 03:34:00,64.9,65.0,30.00,NE,35,1.0,3.0,99,0.00,,,0.00,weatherlink.com 1.10,2013-07-13 07:34:00,
2013-07-13 03:49:00,65.0,65.0,29.99,NNW,337,0.0,1.0,99,0.00,,,0.00,weatherlink.com 1.10,2013-07-13 07:49:00,
2013-07-13 04:04:00,65.1,65.0,29.99,ESE,110,1.0,3.0,99,0.00,,,0.00,weatherlink.com 1.10,2013-07-13 08:04:00,
2013-07-13 04:19:00,65.2,65.0,29.99,ESE,108,0.0,2.0,99,0.00,,,0.00,weatherlink.com 1.10,2013-07-13 08:19:00,
2013-07-13 04:34:00,65.6,65.0,29.99,ESE,108,0.0,1.0,99,0.00,,,0.00,weatherlink.com 1.10,2013-07-13 08:34:00,
2013-07-13 04:49:00,65.6,65.0,30.00,ESE,108,0.0,1.0,99,0.00,,,0.00,weatherlink.com 1.10,2013-07-13 08:49:00,
2013-07-13 05:04:00,65.6,65.0,29.99,ESE,108,0.0,1.0,99,0.00,,,0.00,weatherlink.com 1.10,2013-07-13 09:04:00,
2013-07-13 05:19:00,65.8,65.0,30.00,North,8,0.0,3.0,98,0.00,,,0.00,weatherlink.com 1.10,2013-07-13 09:19:00,
2013-07-13 05:34:00,65.9,65.0,30.00,North,8,0.0,2.0,98,0.00,,,0.00,weatherlink.com 1.10,2013-07-13 09:34:00,
2013-07-13 05:49:00,65.8,65.0,30.00,NE,37,0.0,2.0,98,0.00,,,0.00,weatherlink.com 1.10,2013-07-13 09:49:00,
2013-07-13 06:04:00,65.9,65.0,30.01,NNE,16,0.0,5.0,98,0.00,,,0.00,weatherlink.com 1.10,2013-07-13 10:04:00,
2013-07-13 06:19:00,66.0,66.0,30.01,North,359,0.0,1.0,98,0.00,,,0.00,weatherlink.com 1.10,2013-07-13 10:19:00,
2013-07-13 06:34:00,66.2,66.0,30.02,NE,50,0.0,2.0,98,0.00,,,0.00,weatherlink.com 1.10,2013-07-13 10:34:00,
2013-07-13 06:49:00,66.2,66.0,30.02,NE,35,0.0,4.0,98,0.00,,,0.00,weatherlink.com 1.10,2013-07-13 10:49:00,
2013-07-13 07:04:00,66.2,66.0,30.03,SE,141,0.0,5.0,98,0.00,,,0.00,weatherlink.com 1.10,2013-07-13 11:04:00,
2013-07-13 07:19:00,66.3,66.0,30.03,NW,316,1.0,3.0,98,0.00,,,0.00,weatherlink.com 1.10,2013-07-13 11:19:00,
2013-07-13 07:34:00,66.4,66.0,30.03,NNW,328,1.0,4.0,97,0.00,,,0.00,weatherlink.com 1.10,2013-07-13 11:34:00,
2013-07-13 07:49:00,66.6,66.0,30.04,East,82,0.0,3.0,98,0.00,,,0.00,weatherlink.com 1.10,2013-07-13 11:49:00,
2013-07-13 08:04:00,66.8,66.0,30.04,NE,49,1.0,3.0,98,0.00,,,0.00,weatherlink.com 1.10,2013-07-13 12:04:00,
2013-07-13 08:19:00,67.0,66.0,30.04,NNE,31,2.0,3.0,97,0.00,,,0.00,weatherlink.com 1.10,2013-07-13 12:19:00,
2013-07-13 08:34:00,67.1,66.0,30.04,NE,38,2.0,4.0,97,0.00,,,0.00,weatherlink.com 1.10,2013-07-13 12:34:00,
2013-07-13 08:49:00,67.2,66.0,30.05,ESE,107,0.0,4.0,97,0.00,,,0.00,weatherlink.com 1.10,2013-07-13 12:49:00,
2013-07-13 09:04:00,67.3,67.0,30.06,East,97,0.0,2.0,97,0.00,,,0.00,weatherlink.com 1.10,2013-07-13 13:04:00,
2013-07-13 09:19:00,67.3,66.0,30.07,East,96,2.0,3.0,96,0.00,,,0.00,weatherlink.com 1.10,2013-07-13 13:19:00,
2013-07-13 09:34:00,67.3,67.0,30.08,ENE,64,1.0,4.0,97,0.00,,,0.00,weatherlink.com 1.10,2013-07-13 13:34:00,
2013-07-13 09:50:00,67.5,67.0,30.07,NNE,33,2.0,6.0,97,0.00,,,0.00,weatherlink.com 1.10,2013-07-13 13:50:00,
2013-07-13 10:05:00,68.0,67.0,30.08,NE,43,1.0,4.0,97,0.00,,,0.00,weatherlink.com 1.10,2013-07-13 14:05:00,
2013-07-13 10:20:00,68.3,67.0,30.08,NNE,12,0.0,4.0,96,0.00,,,0.00,weatherlink.com 1.10,2013-07-13 14:20:00,
2013-07-13 10:35:00,68.6,68.0,30.08,East,81,0.0,4.0,96,0.00,,,0.00,weatherlink.com 1.10,2013-07-13 14:35:00,
2013-07-13 10:50:00,68.7,67.0,30.09,NNE,25,2.0,6.0,95,0.00,,,0.00,weatherlink.com 1.10,2013-07-13 14:50:00,
2013-07-13 11:05:00,69.1,68.0,30.09,NNE,31,0.0,4.0,95,0.00,,,0.00,weatherlink.com 1.10,2013-07-13 15:05:00,
2013-07-13 11:20:00,69.7,68.0,30.09,ENE,67,1.0,4.0,94,0.00,,,0.00,weatherlink.com 1.10,2013-07-13 15:20:00,
2013-07-13 11:35:00,70.2,69.0,30.09,ENE,75,0.0,5.0,94,0.00,,,0.00,weatherlink.com 1.10,2013-07-13 15:35:00,
2013-07-13 11:50:00,70.7,69.0,30.09,NNE,29,0.0,4.0,93,0.00,,,0.00,weatherlink.com 1.10,2013-07-13 15:50:00,
2013-07-13 12:05:00,71.1,69.0,30.09,NE,55,2.0,4.0,92,0.00,,,0.00,weatherlink.com 1.10,2013-07-13 16:05:00,
2013-07-13 12:20:00,72.3,69.0,30.09,ENE,78,2.0,4.0,90,0.00,,,0.00,weatherlink.com 1.10,2013-07-13 16:20:00,
2013-07-13 12:35:00,72.5,70.0,30.09,ESE,111,0.0,6.0,90,0.00,,,0.00,weatherlink.com 1.10,2013-07-13 16:35:00,
2013-07-13 12:50:00,73.4,70.0,30.09,ENE,73,2.0,4.0,88,0.00,,,0.00,weatherlink.com 1.10,2013-07-13 16:50:00,
2013-07-13 13:05:00,73.4,69.0,30.09,NE,50,3.0,6.0,87,0.00,,,0.00,weatherlink.com 1.10,2013-07-13 17:05:00,
2013-07-13 13:20:00,73.7,69.0,30.09,East,83,0.0,5.0,86,0.00,,,0.00,weatherlink.com 1.10,2013-07-13 17:20:00,
2013-07-13 13:35:00,73.6,69.0,30.08,North,359,3.0,5.0,86,0.00,,,0.00,weatherlink.com 1.10,2013-07-13 17:35:00,
2013-07-13 13:50:00,74.2,70.0,30.08,SSE,158,1.0,3.0,86,0.00,,,0.00,weatherlink.com 1.10,2013-07-13 17:50:00,
2013-07-13 14:05:00,75.0,70.0,30.07,East,80,6.0,7.0,85,0.00,,,0.00,weatherlink.com 1.10,2013-07-13 18:05:00,
2013-07-13 14:20:00,75.4,70.0,30.07,East,84,1.0,5.0,83,0.00,,,0.00,weatherlink.com 1.10,2013-07-13 18:20:00,
2013-07-13 14:35:00,75.3,70.0,30.07,NNE,31,1.0,4.0,82,0.00,,,0.00,weatherlink.com 1.10,2013-07-13 18:35:00,
2013-07-13 14:50:00,76.2,70.0,30.07,North,4,3.0,5.0,82,0.00,,,0.00,weatherlink.com 1.10,2013-07-13 18:50:00,
2013-07-13 15:05:00,77.1,71.0,30.06,NNE,19,0.0,4.0,80,0.00,,,0.00,weatherlink.com 1.10,2013-07-13 19:05:00,
2013-07-13 15:20:00,77.6,71.0,30.06,NE,35,5.0,6.0,80,0.00,,,0.00,weatherlink.com 1.10,2013-07-13 19:20:00,
2013-07-13 15:35:00,77.2,71.0,30.06,NW,318,1.0,4.0,80,0.00,,,0.00,weatherlink.com 1.10,2013-07-13 19:35:00,
2013-07-13 15:50:00,77.7,71.0,30.06,ENE,71,1.0,9.0,79,0.00,,,0.00,weatherlink.com 1.10,2013-07-13 19:50:00,
2013-07-13 16:05:00,78.8,71.0,30.06,ESE,107,1.0,5.0,78,0.00,,,0.00,weatherlink.com 1.10,2013-07-13 20:05:00,
2013-07-13 16:20:00,78.7,71.0,30.05,East,89,1.0,3.0,76,0.00,,,0.00,weatherlink.com 1.10,2013-07-13 20:20:00,
2013-07-13 16:35:00,79.1,71.0,30.05,ESE,106,0.0,4.0,75,0.00,,,0.00,weatherlink.com 1.10,2013-07-13 20:35:00,
2013-07-13 16:50:00,80.0,72.0,30.04,South,185,3.0,4.0,76,0.00,,,0.00,weatherlink.com 1.10,2013-07-13 20:50:00,
2013-07-13 17:05:00,79.2,71.0,30.05,ESE,107,2.0,6.0,75,0.00,,,0.00,weatherlink.com 1.10,2013-07-13 21:05:00,
2013-07-13 17:20:00,78.6,71.0,30.05,ENE,57,0.0,4.0,77,0.00,,,0.00,weatherlink.com 1.10,2013-07-13 21:20:00,
2013-07-13 17:35:00,78.5,72.0,30.05,ENE,75,1.0,3.0,80,0.00,,,0.00,weatherlink.com 1.10,2013-07-13 21:35:00,
2013-07-13 17:50:00,76.9,71.0,30.04,SE,141,1.0,8.0,81,0.00,,,0.00,weatherlink.com 1.10,2013-07-13 21:50:00,
2013-07-13 18:05:00,77.9,72.0,30.04,NNE,29,1.0,4.0,81,0.00,,,0.00,weatherlink.com 1.10,2013-07-13 22:05:00,
2013-07-13 18:20:00,77.9,72.0,30.04,NNW,337,1.0,5.0,82,0.00,,,0.00,weatherlink.com 1.10,2013-07-13 22:20:00,
2013-07-13 18:35:00,77.9,72.0,30.04,NE,38,3.0,4.0,81,0.00,,,0.00,weatherlink.com 1.10,2013-07-13 22:35:00,
2013-07-13 18:51:00,78.1,72.0,30.04,ESE,118,1.0,2.0,82,0.00,,,0.00,weatherlink.com 1.10,2013-07-13 22:51:00,
2013-07-13 19:06:00,78.6,72.0,30.05,East,97,0.0,4.0,80,0.00,,,0.00,weatherlink.com 1.10,2013-07-13 23:06:00,
2013-07-13 19:21:00,78.3,72.0,30.05,ENE,68,1.0,3.0,80,0.00,,,0.00,weatherlink.com 1.10,2013-07-13 23:21:00,
2013-07-13 19:36:00,78.0,72.0,30.05,ENE,68,0.0,2.0,82,0.00,,,0.00,weatherlink.com 1.10,2013-07-13 23:36:00,
2013-07-13 19:51:00,77.0,72.0,30.05,NE,41,0.0,3.0,83,0.00,,,0.00,weatherlink.com 1.10,2013-07-13 23:51:00,
2013-07-13 20:06:00,75.9,71.0,30.05,NE,35,1.0,5.0,84,0.00,,,0.00,weatherlink.com 1.10,2013-07-14 00:06:00,
2013-07-13 20:21:00,75.1,71.0,30.06,NNW,348,2.0,2.0,86,0.00,,,0.00,weatherlink.com 1.10,2013-07-14 00:21:00,
2013-07-13 20:36:00,74.5,71.0,30.06,NE,56,0.0,4.0,87,0.00,,,0.00,weatherlink.com 1.10,2013-07-14 00:36:00,
2013-07-13 20:51:00,74.1,70.0,30.06,NE,55,0.0,2.0,88,0.00,,,0.00,weatherlink.com 1.10,2013-07-14 00:51:00,
2013-07-13 21:06:00,73.5,70.0,30.06,NE,36,2.0,3.0,89,0.00,,,0.00,weatherlink.com 1.10,2013-07-14 01:06:00,
2013-07-13 21:21:00,73.5,71.0,30.07,NNE,33,0.0,2.0,90,0.00,,,0.00,weatherlink.com 1.10,2013-07-14 01:21:00,
2013-07-13 21:36:00,73.1,70.0,30.07,NE,39,0.0,4.0,90,0.00,,,0.00,weatherlink.com 1.10,2013-07-14 01:36:00,
2013-07-13 21:51:00,72.9,70.0,30.07,NNE,31,1.0,4.0,91,0.00,,,0.00,weatherlink.com 1.10,2013-07-14 01:51:00,
2013-07-13 22:06:00,72.9,70.0,30.07,ENE,68,0.0,2.0,91,0.00,,,0.00,weatherlink.com 1.10,2013-07-14 02:06:00,
2013-07-13 22:21:00,72.8,70.0,30.07,ENE,68,0.0,2.0,91,0.00,,,0.00,weatherlink.com 1.10,2013-07-14 02:21:00,
2013-07-13 22:36:00,72.7,70.0,30.06,NE,52,2.0,4.0,91,0.00,,,0.00,weatherlink.com 1.10,2013-07-14 02:36:00,
2013-07-13 22:51:00,72.6,70.0,30.07,NE,37,0.0,3.0,91,0.00,,,0.00,weatherlink.com 1.10,2013-07-14 02:51:00,
2013-07-13 23:06:00,72.5,70.0,30.06,ENE,68,2.0,5.0,91,0.00,,,0.00,weatherlink.com 1.10,2013-07-14 03:06:00,
2013-07-13 23:21:00,72.3,70.0,30.06,SSW,208,0.0,3.0,92,0.00,,,0.00,weatherlink.com 1.10,2013-07-14 03:21:00,
2013-07-13 23:36:00,72.2,70.0,30.06,West,273,2.0,5.0,93,0.00,,,0.00,weatherlink.com 1.10,2013-07-14 03:36:00,
2013-07-13 23:51:00,72.1,70.0,30.07,NNW,342,0.0,5.0,93,0.00,,,0.00,weatherlink.com 1.10,2013-07-14 03:51:00,